When you browse on this site, cookies collect data to enhance your experience and personalize the content and advertising you see.
Visit our Privacy Policy to learn more. By continuing to use the site, you agree to this use of cookies and data.
  • In Sweden
  • List of Countries
  • For 7 days
  • Water Temperature
  • Weather Map
  • Weather Widgets
  • user-avatar
    Login

    Hourly Weather Slomin

    Today, 18 October, Friday

    Time Temperature Precipitation Wind Pressure Humidity
    00:00 +13°C° 0 mm 2 mps 752 mmHg 63%
    01:00 +13°C° 0 mm 2 mps 752 mmHg 64%
    02:00 +12°C° 0 mm 2 mps 752 mmHg 66%
    03:00 +12°C° 0 mm 2 mps 751 mmHg 68%
    04:00 +12°C° 0 mm 2 mps 751 mmHg 70%
    05:00 +12°C° 0 mm 2 mps 751 mmHg 70%
    06:00 +12°C° 0 mm 2 mps 751 mmHg 70%
    07:00 +12°C° 0 mm 3 mps 751 mmHg 70%
    08:00 +13°C° 0 mm 3 mps 751 mmHg 66%
    09:00 +16°C° 0 mm 3 mps 751 mmHg 62%
    10:00 +17°C° 0 mm 3 mps 751 mmHg 58%
    11:00 +18°C° 0 mm 3 mps 751 mmHg 55%
    12:00 +19°C° 0 mm 3 mps 750 mmHg 53%
    13:00 +20°C° 0 mm 3 mps 750 mmHg 50%
    14:00 +20°C° 0 mm 3 mps 750 mmHg 53%
    15:00 +19°C° 0 mm 2 mps 750 mmHg 56%
    16:00 +18°C° 0 mm 2 mps 749 mmHg 59%
    17:00 +17°C° 0 mm 2 mps 749 mmHg 61%
    18:00 +16°C° 0 mm 2 mps 749 mmHg 63%
    19:00 +15°C° 0 mm 2 mps 749 mmHg 65%
    20:00 +15°C° 0 mm 2 mps 749 mmHg 65%
    21:00 +15°C° 0 mm 2 mps 750 mmHg 65%
    22:00 +15°C° 0 mm 2 mps 750 mmHg 65%
    23:00 +14°C° 0 mm 2 mps 750 mmHg 67%

    Tomorrow, 19 October, Saturday

    Time Temperature Precipitation Wind Pressure Humidity
    00:00 +14°C° 0 mm 2 mps 750 mmHg 69%
    01:00 +14°C° 0 mm 2 mps 750 mmHg 72%
    02:00 +13°C° 0 mm 2 mps 750 mmHg 76%
    03:00 +13°C° 0 mm 2 mps 750 mmHg 80%
    04:00 +12°C° 0 mm 2 mps 750 mmHg 84%
    05:00 +12°C° 0 mm 2 mps 750 mmHg 85%
    06:00 +12°C° 0 mm 2 mps 750 mmHg 86%
    07:00 +12°C° 0 mm 2 mps 750 mmHg 87%
    08:00 +14°C° 0 mm 2 mps 750 mmHg 80%
    09:00 +15°C° 0 mm 1 mps 750 mmHg 74%
    10:00 +18°C° 0 mm 1 mps 750 mmHg 67%
    11:00 +18°C° 0 mm 1 mps 750 mmHg 64%
    12:00 +19°C° 0 mm 1 mps 750 mmHg 61%
    13:00 +20°C° 0 mm 1 mps 750 mmHg 59%
    14:00 +19°C° 0 mm 1 mps 750 mmHg 61%
    15:00 +19°C° 0 mm 1 mps 749 mmHg 64%
    16:00 +18°C° 0 mm 1 mps 749 mmHg 67%
    17:00 +16°C° 0 mm 1 mps 749 mmHg 69%
    18:00 +16°C° 0 mm 1 mps 750 mmHg 71%
    19:00 +15°C° 0 mm 2 mps 750 mmHg 72%
    20:00 +15°C° 0 mm 2 mps 750 mmHg 74%
    21:00 +14°C° 0 mm 2 mps 750 mmHg 75%
    22:00 +14°C° 0 mm 2 mps 750 mmHg 77%
    23:00 +14°C° 0 mm 2 mps 750 mmHg 78%

    Day after tomorrow, 20 October, Sunday

    Time Temperature Precipitation Wind Pressure Humidity
    00:00 +14°C° 0 mm 2 mps 750 mmHg 79%
    01:00 +13°C° 0 mm 2 mps 750 mmHg 80%
    02:00 +13°C° 0 mm 2 mps 750 mmHg 81%
    03:00 +13°C° 0 mm 2 mps 750 mmHg 82%
    04:00 +13°C° 0 mm 1 mps 750 mmHg 83%
    05:00 +13°C° 0 mm 2 mps 750 mmHg 83%
    06:00 +13°C° 0 mm 2 mps 750 mmHg 83%
    07:00 +13°C° 0 mm 2 mps 750 mmHg 82%
    08:00 +15°C° 0 mm 2 mps 750 mmHg 75%
    09:00 +17°C° 0 mm 2 mps 750 mmHg 68%
    10:00 +19°C° 0 mm 2 mps 750 mmHg 61%
    11:00 +19°C° 0 mm 2 mps 750 mmHg 59%
    12:00 +20°C° 0 mm 2 mps 750 mmHg 56%
    13:00 +21°C° 0 mm 2 mps 750 mmHg 53%
    14:00 +21°C° 0 mm 2 mps 750 mmHg 56%
    15:00 +20°C° 0 mm 2 mps 750 mmHg 60%
    16:00 +19°C° 0 mm 2 mps 749 mmHg 63%
    17:00 +18°C° 0 mm 2 mps 750 mmHg 66%
    18:00 +17°C° 0 mm 2 mps 750 mmHg 70%
    19:00 +16°C° 0 mm 2 mps 750 mmHg 74%
    20:00 +16°C° 0 mm 2 mps 750 mmHg 75%
    21:00 +15°C° 0 mm 2 mps 750 mmHg 77%
    22:00 +15°C° 0 mm 2 mps 750 mmHg 78%
    23:00 +15°C° 0 mm 2 mps 749 mmHg 79%

    21 October, Monday

    Time Temperature Precipitation Wind Pressure Humidity
    00:00 +15°C° 0 mm 2 mps 749 mmHg 80%
    01:00 +15°C° 0 mm 2 mps 749 mmHg 80%
    02:00 +15°C° 0 mm 2 mps 749 mmHg 80%
    03:00 +14°C° 0 mm 2 mps 749 mmHg 80%
    04:00 +14°C° 0 mm 2 mps 749 mmHg 80%
    05:00 +14°C° 0 mm 2 mps 749 mmHg 80%
    06:00 +14°C° 0 mm 2 mps 749 mmHg 80%
    07:00 +14°C° 0 mm 2 mps 749 mmHg 80%
    08:00 +16°C° 0 mm 2 mps 750 mmHg 75%
    09:00 +17°C° 0 mm 3 mps 750 mmHg 69%
    10:00 +19°C° 0 mm 3 mps 750 mmHg 64%
    11:00 +19°C° 0 mm 4 mps 751 mmHg 63%
    12:00 +20°C° 0 mm 4 mps 751 mmHg 63%
    13:00 +20°C° 0 mm 4 mps 751 mmHg 62%
    14:00 +20°C° 0 mm 4 mps 751 mmHg 65%
    15:00 +19°C° 0 mm 3 mps 752 mmHg 67%
    16:00 +18°C° 0 mm 3 mps 752 mmHg 70%
    17:00 +18°C° 0 mm 3 mps 753 mmHg 73%
    18:00 +17°C° 0 mm 3 mps 753 mmHg 75%
    19:00 +15°C° 0 mm 4 mps 754 mmHg 78%
    20:00 +14°C° 0 mm 4 mps 754 mmHg 82%
    21:00 +14°C° 0 mm 3 mps 755 mmHg 85%
    22:00 +13°C° 0 mm 3 mps 755 mmHg 88%
    23:00 +12°C° 0 mm 3 mps 756 mmHg 89%

    22 October, Tuesday

    Time Temperature Precipitation Wind Pressure Humidity
    00:00 +13°C° 0 mm 2 mps 756 mmHg 91%
    01:00 +12°C° 0 mm 2 mps 757 mmHg 92%
    02:00 +12°C° 0 mm 2 mps 757 mmHg 93%
    03:00 +10°C° 0 mm 2 mps 757 mmHg 93%
    04:00 +11°C° 0 mm 1 mps 758 mmHg 93%
    05:00 +11°C° 0 mm 1 mps 758 mmHg 92%
    06:00 +12°C° 0 mm 1 mps 758 mmHg 91%
    07:00 +12°C° 0 mm 1 mps 759 mmHg 91%
    08:00 +13°C° 0 mm 2 mps 759 mmHg 84%
    09:00 +14°C° 0 mm 2 mps 759 mmHg 78%
    10:00 +14°C° 0 mm 2 mps 760 mmHg 72%
    11:00 +15°C° 0 mm 2 mps 760 mmHg 66%
    12:00 +16°C° 0 mm 3 mps 759 mmHg 61%
    13:00 +16°C° 0 mm 3 mps 759 mmHg 55%
    14:00 +14°C° 0 mm 3 mps 759 mmHg 58%
    15:00 +15°C° 0 mm 2 mps 759 mmHg 60%
    16:00 +14°C° 0 mm 2 mps 759 mmHg 62%
    17:00 +13°C° 0 mm 2 mps 759 mmHg 65%
    18:00 +12°C° 0 mm 1 mps 760 mmHg 68%
    19:00 +11°C° 0 mm 1 mps 760 mmHg 71%
    20:00 +11°C° 0 mm 1 mps 760 mmHg 73%
    21:00 +10°C° 0 mm 0 mps 760 mmHg 75%
    22:00 +9°C° 0 mm 0 mps 760 mmHg 77%
    23:00 +9°C° 0 mm 0 mps 760 mmHg 78%

    23 October, Wednesday

    Time Temperature Precipitation Wind Pressure Humidity
    00:00 +8°C° 0 mm 0 mps 760 mmHg 80%
    01:00 +8°C° 0 mm 0 mps 760 mmHg 81%
    02:00 +8°C° 0 mm 0 mps 760 mmHg 82%
    03:00 +8°C° 0 mm 0 mps 759 mmHg 83%
    04:00 +7°C° 0 mm 0 mps 759 mmHg 83%
    05:00 +8°C° 0 mm 1 mps 759 mmHg 83%
    06:00 +8°C° 0 mm 1 mps 759 mmHg 84%
    07:00 +8°C° 0 mm 1 mps 759 mmHg 84%
    08:00 +9°C° 0 mm 2 mps 759 mmHg 78%
    09:00 +12°C° 0 mm 2 mps 758 mmHg 72%
    10:00 +13°C° 0 mm 3 mps 758 mmHg 66%
    11:00 +14°C° 0 mm 3 mps 758 mmHg 63%
    12:00 +16°C° 0 mm 3 mps 758 mmHg 59%
    13:00 +17°C° 0 mm 3 mps 757 mmHg 56%
    14:00 +16°C° 0 mm 3 mps 757 mmHg 60%
    15:00 +14°C° 0 mm 3 mps 756 mmHg 63%
    16:00 +13°C° 0 mm 3 mps 756 mmHg 67%
    17:00 +13°C° 0 mm 3 mps 756 mmHg 69%
    18:00 +12°C° 0 mm 3 mps 755 mmHg 70%
    19:00 +11°C° 0 mm 4 mps 755 mmHg 72%
    20:00 +11°C° 0 mm 4 mps 755 mmHg 72%
    21:00 +10°C° 0 mm 4 mps 755 mmHg 72%
    22:00 +10°C° 0 mm 4 mps 755 mmHg 72%
    23:00 +10°C° 0 mm 4 mps 754 mmHg 73%
    Show more